| time (UTC) | temp F | wind direction | speed MPH | gust MPH | rain 1hr in | rain 24hr in | rain mn in | humidity % | barometer mb |
| 20260903234017 | 64 | 0.0 | 3.0 | 0.08 | 0.45 | 0.45 | 16 | 1021.5 | |
| 20260903233017 | 65 | 0 | 1.0 | 4.0 | 0.08 | 0.45 | 0.45 | 28 | 1021.8 |
| 20260903232017 | 67 | 248 | 2.0 | 7.0 | 0.05 | 0.42 | 0.42 | 37 | 1022.6 |
| 20260903231017 | 70 | 0.0 | 0.0 | 0.00 | 0.37 | 0.37 | 42 | 1023.2 | |
| 20260903230037 | 70 | 23 | 1.0 | 5.0 | 0.00 | 0.37 | 0.37 | 41 | 1022.8 |
| 20260903225017 | 71 | 45 | 2.0 | 6.0 | 0.00 | 0.37 | 0.37 | 41 | 1023.2 |
| 20260903224017 | 72 | 45 | 2.0 | 6.0 | 0.00 | 0.37 | 0.37 | 40 | 1023.2 |
| 20260903223017 | 72 | 23 | 3.0 | 10.0 | 0.02 | 0.37 | 0.37 | 39 | 1023.2 |
| 20260903222017 | 71 | 23 | 2.0 | 6.0 | 0.02 | 0.37 | 0.37 | 38 | 1023.1 |
| 20260903221017 | 69 | 23 | 2.0 | 10.0 | 0.02 | 0.37 | 0.37 | 38 | 1022.4 |
| 20260903220037 | 69 | 23 | 3.0 | 7.0 | 0.02 | 0.37 | 0.37 | 36 | 1022.3 |
| 20260903215017 | 68 | 23 | 2.0 | 9.0 | 0.02 | 0.37 | 0.37 | 33 | 1022.2 |
| 20260903214017 | 69 | 23 | 3.0 | 9.0 | 0.02 | 0.37 | 0.37 | 43 | 1022.9 |
| 20260903213017 | 71 | 23 | 4.0 | 10.0 | 0.00 | 0.35 | 0.35 | 43 | 1023.6 |
| 20260903212017 | 73 | 23 | 5.0 | 13.0 | 0.00 | 0.35 | 0.35 | 40 | 1023.9 |
| 20260903211017 | 73 | 23 | 4.0 | 12.0 | 0.00 | 0.35 | 0.35 | 39 | 1023.7 |
| 20260903210017 | 70 | 23 | 5.0 | 12.0 | 0.00 | 0.35 | 0.35 | 41 | 1022.9 |
| 20260903205017 | 69 | 0 | 6.0 | 16.0 | 0.00 | 0.35 | 0.35 | 41 | 1022.7 |
| 20260903204017 | 69 | 0 | 5.0 | 15.0 | 0.00 | 0.35 | 0.35 | 40 | 1022.7 |
| 20260903203037 | 69 | 23 | 3.0 | 9.0 | 0.00 | 0.35 | 0.35 | 40 | 1022.5 |
| 20260903202017 | 68 | 0 | 5.0 | 12.0 | 0.10 | 0.35 | 0.35 | 40 | 1021.9 |
| 20260903201017 | 67 | 0 | 5.0 | 13.0 | 0.19 | 0.35 | 0.35 | 40 | 1021.9 |
| 20260903200017 | 66 | 0 | 4.0 | 12.0 | 0.29 | 0.35 | 0.35 | 38 | 1021.6 |
| 20260903195017 | 66 | 0 | 3.0 | 12.0 | 0.31 | 0.35 | 0.35 | 32 | 1021.3 |
| 20260903194016 | 67 | 23 | 1.0 | 4.0 | 0.34 | 0.35 | 0.35 | 37 | 1021.8 |
| 20260903193017 | 68 | 0.0 | 6.0 | 0.35 | 0.35 | 0.35 | 43 | 1022.2 | |
| 20260903192016 | 66 | 45 | 3.0 | 12.0 | 0.25 | 0.25 | 0.25 | 42 | 1022.1 |
| 20260903191016 | 66 | 113 | 3.0 | 11.0 | 0.16 | 0.16 | 0.16 | 44 | 1022.3 |
| 20260903190036 | 70 | 113 | 3.0 | 11.0 | 0.06 | 0.06 | 0.06 | 45 | 1023.0 |
| 20260903185036 | 71 | 203 | 1.0 | 9.0 | 0.04 | 0.04 | 0.04 | 45 | 1023.0 |
| 20260903184016 | 78 | 0.0 | 3.0 | 0.01 | 0.01 | 0.01 | 44 | 1025.2 | |
| 20260903183017 | 79 | 0.0 | 2.0 | 0.00 | 0.00 | 0.00 | 45 | 1025.3 | |
| 20260903182017 | 79 | 0.0 | 1.0 | 0.00 | 0.00 | 0.00 | 42 | 1025.4 | |
| 20260903181016 | 81 | 0.0 | 2.0 | 0.00 | 0.00 | 0.00 | 43 | 1027.0 | |
| 20260903180016 | 81 | 0.0 | 1.0 | 0.00 | 0.00 | 0.00 | 38 | 1027.1 | |
| 20260903175016 | 82 | 0.0 | 3.0 | 0.00 | 0.00 | 0.00 | 37 | 1027.1 | |
| 20260903174016 | 81 | 0.0 | 3.0 | 0.00 | 0.00 | 0.00 | 38 | 1027.1 | |
| 20260903173016 | 83 | 270 | 1.0 | 6.0 | 0.00 | 0.00 | 0.00 | 37 | 1027.2 |
| 20260903172016 | 83 | 248 | 3.0 | 11.0 | 0.00 | 0.00 | 0.00 | 37 | 1027.9 |
| 20260903171016 | 80 | 248 | 1.0 | 6.0 | 0.00 | 0.00 | 0.00 | 39 | 1027.4 |
| 20260903170016 | 80 | 225 | 2.0 | 7.0 | 0.00 | 0.00 | 0.00 | 38 | 1027.6 |
| 20260903165016 | 81 | 270 | 2.0 | 10.0 | 0.00 | 0.00 | 0.00 | 38 | 1028.0 |
| 20260903164016 | 82 | 270 | 2.0 | 10.0 | 0.00 | 0.00 | 0.00 | 37 | 1028.5 |
| 20260903163016 | 82 | 270 | 3.0 | 12.0 | 0.00 | 0.00 | 0.00 | 37 | 1028.4 |
| 20260903162016 | 81 | 248 | 3.0 | 10.0 | 0.00 | 0.00 | 0.00 | 38 | 1028.3 |
| 20260903161016 | 81 | 225 | 3.0 | 9.0 | 0.00 | 0.00 | 0.00 | 38 | 1028.4 |
| 20260903160016 | 81 | 203 | 3.0 | 10.0 | 0.00 | 0.00 | 0.00 | 39 | 1028.5 |
| 20260903155016 | 80 | 203 | 4.0 | 11.0 | 0.00 | 0.00 | 0.00 | 39 | 1028.1 |
| 20260903154016 | 80 | 225 | 3.0 | 12.0 | 0.00 | 0.00 | 0.00 | 39 | 1028.6 |
| 20260903153016 | 79 | 203 | 3.0 | 11.0 | 0.00 | 0.00 | 0.00 | 40 | 1028.2 |
| 20260903152016 | 78 | 203 | 4.0 | 13.0 | 0.00 | 0.00 | 0.00 | 40 | 1028.3 |
| 20260903151016 | 78 | 248 | 2.0 | 9.0 | 0.00 | 0.00 | 0.00 | 40 | 1028.5 |
| 20260903150016 | 77 | 248 | 3.0 | 9.0 | 0.00 | 0.00 | 0.00 | 40 | 1028.2 |
| 20260903145016 | 77 | 248 | 3.0 | 9.0 | 0.00 | 0.00 | 0.00 | 40 | 1028.1 |
| 20260903144016 | 76 | 248 | 2.0 | 9.0 | 0.00 | 0.00 | 0.00 | 40 | 1028.7 |
| 20260903143016 | 74 | 248 | 1.0 | 3.0 | 0.00 | 0.00 | 0.00 | 40 | 1028.2 |
| 20260903142016 | 71 | 248 | 1.0 | 4.0 | 0.00 | 0.00 | 0.00 | 40 | 1027.6 |
| 20260903141016 | 69 | 0.0 | 2.0 | 0.00 | 0.00 | 0.00 | 40 | 1027.1 | |
| 20260903140016 | 67 | 0.0 | 3.0 | 0.00 | 0.00 | 0.00 | 40 | 1027.1 | |
| 20260903135016 | 65 | 0.0 | 4.0 | 0.00 | 0.00 | 0.00 | 40 | 1026.6 | |
| 20260903134036 | 63 | 0.0 | 3.0 | 0.00 | 0.00 | 0.00 | 41 | 1026.5 | |
| 20260903133036 | 61 | 0.0 | 0.0 | 0.00 | 0.00 | 0.00 | 42 | 1026.1 | |
| 20260903132015 | 60 | 0.0 | 0.0 | 0.00 | 0.00 | 0.00 | 43 | 1025.6 | |
| 20260903131015 | 59 | 0.0 | 1.0 | 0.00 | 0.00 | 0.00 | 44 | 1025.5 | |
| 20260903130036 | 59 | 0.0 | 3.0 | 0.00 | 0.00 | 0.00 | 44 | 1025.4 | |
| 20260903125015 | 59 | 270 | 1.0 | 3.0 | 0.00 | 0.00 | 0.00 | 44 | 1025.2 |
| 20260903124016 | 59 | 270 | 1.0 | 3.0 | 0.00 | 0.00 | 0.00 | 44 | 1025.6 |
| 20260903123015 | 61 | 270 | 2.0 | 4.0 | 0.00 | 0.00 | 0.00 | 42 | 1026.1 |
| 20260903122015 | 60 | 270 | 1.0 | 4.0 | 0.00 | 0.00 | 0.00 | 42 | 1025.6 |
| 20260903121015 | 59 | 248 | 1.0 | 5.0 | 0.00 | 0.00 | 0.00 | 43 | 1026.0 |
| 20260903120036 | 59 | 248 | 1.0 | 4.0 | 0.00 | 0.00 | 0.00 | 42 | 1026.1 |
| 20260903115017 | 58 | 248 | 1.0 | 6.0 | 0.00 | 0.00 | 0.00 | 41 | 1025.4 |
| 20260903114017 | 58 | 248 | 1.0 | 5.0 | 0.00 | 0.00 | 0.00 | 41 | 1026.6 |
| 20260903113017 | 58 | 270 | 1.0 | 4.0 | 0.00 | 0.00 | 0.00 | 41 | 1026.7 |
| 20260903112017 | 58 | 0.0 | 3.0 | 0.00 | 0.00 | 0.00 | 40 | 1026.6 | |
| 20260903111037 | 58 | 248 | 1.0 | 4.0 | 0.00 | 0.00 | 0.00 | 40 | 1026.9 |
| 20260903110017 | 57 | 0.0 | 1.0 | 0.00 | 0.00 | 0.00 | 40 | 1026.8 | |
| 20260903105017 | 57 | 0.0 | 3.0 | 0.00 | 0.00 | 0.00 | 40 | 1027.0 | |
| 20260903104017 | 57 | 0.0 | 4.0 | 0.00 | 0.00 | 0.00 | 41 | 1027.0 | |
| 20260903103017 | 57 | 0.0 | 3.0 | 0.00 | 0.00 | 0.00 | 41 | 1027.1 | |
| 20260903102037 | 57 | 0.0 | 4.0 | 0.00 | 0.00 | 0.00 | 41 | 1026.9 | |
| 20260903101037 | 58 | 0.0 | 3.0 | 0.00 | 0.00 | 0.00 | 42 | 1027.3 | |
| 20260903100017 | 58 | 0.0 | 0.0 | 0.00 | 0.00 | 0.00 | 42 | 1027.2 | |
| 20260903095017 | 58 | 0.0 | 0.0 | 0.00 | 0.00 | 0.00 | 42 | 1027.4 | |
| 20260903094017 | 58 | 248 | 1.0 | 4.0 | 0.00 | 0.00 | 0.00 | 42 | 1026.9 |
| 20260903093017 | 58 | 0.0 | 2.0 | 0.00 | 0.00 | 0.00 | 43 | 1027.0 | |
| 20260903092037 | 59 | 0.0 | 1.0 | 0.00 | 0.00 | 0.00 | 43 | 1026.8 | |
| 20260903091017 | 59 | 0.0 | 3.0 | 0.00 | 0.00 | 0.00 | 43 | 1026.9 | |
| 20260903090017 | 59 | 0.0 | 3.0 | 0.00 | 0.00 | 0.00 | 43 | 1026.8 | |
| 20260903085017 | 60 | 248 | 1.0 | 5.0 | 0.00 | 0.00 | 0.00 | 44 | 1027.0 |
| 20260903084037 | 60 | 248 | 2.0 | 7.0 | 0.00 | 0.00 | 0.00 | 43 | 1026.9 |
| 20260903083017 | 59 | 248 | 1.0 | 6.0 | 0.00 | 0.00 | 0.00 | 44 | 1026.7 |
| 20260903082037 | 59 | 248 | 1.0 | 5.0 | 0.00 | 0.00 | 0.00 | 44 | 1026.8 |
| 20260903081017 | 59 | 0.0 | 3.0 | 0.00 | 0.00 | 0.00 | 45 | 1026.6 | |
| 20260903080017 | 60 | 0.0 | 3.0 | 0.00 | 0.00 | 0.00 | 45 | 1027.1 | |
| 20260903075017 | 60 | 0.0 | 2.0 | 0.00 | 0.00 | 0.00 | 45 | 1027.2 | |
| 20260903074017 | 60 | 0.0 | 2.0 | 0.00 | 0.00 | 0.00 | 45 | 1027.3 | |
| 20260903073017 | 61 | 0.0 | 1.0 | 0.00 | 0.00 | 0.00 | 46 | 1027.4 | |
| 20260903072017 | 61 | 0.0 | 2.0 | 0.00 | 0.00 | 0.00 | 46 | 1027.3 | |
| 20260903071017 | 61 | 0.0 | 4.0 | 0.00 | 0.00 | 0.00 | 46 | 1026.9 | |
| 20260903070037 | 61 | 0.0 | 2.0 | 0.00 | 0.00 | 0.00 | 46 | 1027.0 | |
| 20260903065016 | 61 | 0.0 | 4.0 | 0.00 | 0.00 | 0.00 | 46 | 1027.0 | |
| 20260903064016 | 60 | 0.0 | 3.0 | 0.00 | 0.00 | 0.00 | 47 | 1026.6 | |
| 20260903063016 | 60 | 0.0 | 4.0 | 0.00 | 0.00 | 0.00 | 48 | 1026.5 | |
| 20260903062017 | 60 | 0.0 | 1.0 | 0.00 | 0.00 | 0.00 | 49 | 1026.7 | |
| 20260903061016 | 61 | 0.0 | 1.0 | 0.00 | 0.00 | 0.00 | 51 | 1027.3 | |
| 20260903060117 | 62 | 0.0 | 0.0 | 0.00 | 0.00 | 0.00 | 53 | 1027.8 | |
| 20260903055016 | 63 | 0.0 | 2.0 | 0.00 | 0.00 | 0.00 | 53 | 1027.9 | |
| 20260903054016 | 64 | 248 | 1.0 | 7.0 | 0.00 | 0.00 | 0.00 | 52 | 1027.5 |
| 20260903053016 | 64 | 0.0 | 4.0 | 0.00 | 0.00 | 0.00 | 52 | 1027.4 | |
| 20260903052016 | 64 | 0.0 | 1.0 | 0.00 | 0.00 | 0.00 | 53 | 1027.0 | |
| 20260903051016 | 64 | 0.0 | 2.0 | 0.00 | 0.00 | 0.00 | 53 | 1027.7 | |
| 20260903050016 | 64 | 0.0 | 3.0 | 0.00 | 0.00 | 0.00 | 54 | 1027.5 | |
| 20260903045036 | 66 | 0.0 | 4.0 | 0.00 | 0.00 | 0.00 | 52 | 1027.3 | |
| 20260903044016 | 66 | 248 | 1.0 | 6.0 | 0.00 | 0.00 | 0.00 | 51 | 1028.2 |
| 20260903043056 | 67 | 270 | 1.0 | 9.0 | 0.00 | 0.00 | 0.00 | 51 | 1028.3 |
| 20260903042016 | 67 | 270 | 1.0 | 4.0 | 0.00 | 0.00 | 0.00 | 51 | 1028.2 |
| 20260903041016 | 67 | 270 | 1.0 | 3.0 | 0.00 | 0.00 | 0.00 | 52 | 1027.8 |
| 20260903040016 | 67 | 0.0 | 4.0 | 0.00 | 0.00 | 0.00 | 52 | 1027.9 | |
| 20260903035016 | 67 | 248 | 1.0 | 4.0 | 0.00 | 0.00 | 0.00 | 51 | 1027.9 |
| 20260903034016 | 67 | 0.0 | 2.0 | 0.00 | 0.00 | 0.00 | 52 | 1027.2 | |
| 20260903033016 | 67 | 0.0 | 2.0 | 0.00 | 0.00 | 0.00 | 53 | 1027.3 | |
| 20260903032036 | 68 | 0.0 | 3.0 | 0.00 | 0.00 | 0.00 | 52 | 1027.9 | |
| 20260903031036 | 69 | 0.0 | 5.0 | 0.00 | 0.00 | 0.00 | 51 | 1027.0 | |
| 20260903030016 | 68 | 0.0 | 3.0 | 0.00 | 0.00 | 0.00 | 52 | 1026.6 | |
| 20260903025016 | 68 | 0.0 | 0.0 | 0.00 | 0.00 | 0.00 | 53 | 1026.4 | |
| 20260903024016 | 69 | 0.0 | 0.0 | 0.00 | 0.00 | 0.00 | 53 | 1025.2 | |
| 20260903023016 | 70 | 0.0 | 0.0 | 0.00 | 0.00 | 0.00 | 52 | 1025.5 | |
| 20260903022016 | 71 | 0.0 | 0.0 | 0.00 | 0.00 | 0.00 | 50 | 1025.4 | |
| 20260903021015 | 73 | 0.0 | 0.0 | 0.00 | 0.00 | 0.00 | 49 | 1025.1 | |
| 20260903020036 | 73 | 0.0 | 0.0 | 0.00 | 0.00 | 0.00 | 47 | 1025.4 | |
| 20260903015015 | 74 | 0.0 | 0.0 | 0.00 | 0.00 | 0.00 | 47 | 1025.2 | |
| 20260903014036 | 74 | 0.0 | 0.0 | 0.00 | 0.00 | 0.00 | 47 | 1024.2 | |
| 20260903013016 | 75 | 0.0 | 0.0 | 0.00 | 0.00 | 0.00 | 46 | 1024.3 | |
| 20260903012036 | 76 | 0.0 | 0.0 | 0.00 | 0.00 | 0.00 | 46 | 1024.6 | |
| 20260903011016 | 76 | 0.0 | 1.0 | 0.00 | 0.00 | 0.00 | 46 | 1024.3 | |
| 20260903010016 | 76 | 0.0 | 5.0 | 0.00 | 0.00 | 0.00 | 46 | 1024.2 | |
| 20260903005035 | 77 | 0.0 | 4.0 | 0.00 | 0.00 | 0.00 | 45 | 1024.3 | |
| 20260903004016 | 77 | 45 | 1.0 | 4.0 | 0.00 | 0.00 | 0.00 | 45 | 1025.4 |
| 20260903003015 | 77 | 0.0 | 5.0 | 0.00 | 0.00 | 0.00 | 45 | 1025.0 | |
| 20260903002016 | 77 | 45 | 2.0 | 7.0 | 0.00 | 0.00 | 0.00 | 44 | 1025.1 |
| 20260903001037 | 78 | 45 | 2.0 | 7.0 | 0.00 | 0.00 | 0.00 | 43 | 1025.5 |
| 20260903000017 | 78 | 68 | 2.0 | 10.0 | 0.00 | 0.00 | 0.00 | 43 | 1025.3 |
| 20260902235037 | 79 | 68 | 2.0 | 11.0 | 0.00 | 0.00 | 0.00 | 42 | 1025.3 |